| time (UTC) | temp F | wind direction | speed MPH | gust MPH | rain 1hr in | rain 24hr in | rain mn in | humidity % | barometer mb |
| 20260906143102 | 69 | 141 | 3.0 | 7.0 | 0.00 | 0.01 | 0.01 | 92 | 1020.3 |
| 20260906142552 | 68 | 143 | 3.0 | 7.0 | 0.00 | 0.01 | 0.01 | 92 | 1020.4 |
| 20260906142059 | 68 | 157 | 3.0 | 7.0 | 0.00 | 0.01 | 0.01 | 92 | 1020.4 |
| 20260906141613 | 68 | 174 | 3.0 | 7.0 | 0.00 | 0.01 | 0.01 | 92 | 1020.3 |
| 20260906141053 | 68 | 256 | 3.0 | 7.0 | 0.00 | 0.01 | 0.01 | 93 | 1020.3 |
| 20260906140555 | 68 | 148 | 3.0 | 9.0 | 0.00 | 0.01 | 0.01 | 93 | 1020.3 |
| 20260906140107 | 68 | 141 | 5.0 | 9.0 | 0.00 | 0.01 | 0.01 | 93 | 1020.3 |
| 20260906135552 | 68 | 199 | 5.0 | 7.0 | 0.00 | 0.01 | 0.01 | 94 | 1020.3 |
| 20260906135053 | 68 | 161 | 3.0 | 6.0 | 0.00 | 0.01 | 0.01 | 94 | 1020.4 |
| 20260906134606 | 68 | 139 | 3.0 | 7.0 | 0.00 | 0.01 | 0.01 | 94 | 1020.1 |
| 20260906134056 | 68 | 188 | 3.0 | 7.0 | 0.00 | 0.01 | 0.01 | 95 | 1020.1 |
| 20260906133554 | 67 | 191 | 4.0 | 8.0 | 0.00 | 0.01 | 0.01 | 95 | 1020.1 |
| 20260906133107 | 67 | 119 | 5.0 | 8.0 | 0.00 | 0.01 | 0.01 | 95 | 1020.0 |
| 20260906132552 | 67 | 192 | 4.0 | 10.0 | 0.00 | 0.01 | 0.01 | 95 | 1020.0 |
| 20260906132054 | 67 | 134 | 5.0 | 10.0 | 0.00 | 0.01 | 0.01 | 96 | 1019.9 |
| 20260906131607 | 67 | 180 | 6.0 | 10.0 | 0.00 | 0.01 | 0.01 | 96 | 1019.9 |
| 20260906131052 | 67 | 136 | 2.0 | 8.0 | 0.00 | 0.01 | 0.01 | 96 | 1019.9 |
| 20260906130553 | 67 | 139 | 4.0 | 8.0 | 0.00 | 0.01 | 0.01 | 96 | 1019.8 |
| 20260906130111 | 67 | 200 | 4.0 | 8.0 | 0.01 | 0.01 | 0.01 | 96 | 1019.7 |
| 20260906125555 | 67 | 167 | 4.0 | 8.0 | 0.01 | 0.01 | 0.01 | 96 | 1019.6 |
| 20260906125055 | 67 | 113 | 4.0 | 7.0 | 0.01 | 0.01 | 0.01 | 97 | 1019.6 |
| 20260906124601 | 67 | 146 | 3.0 | 7.0 | 0.01 | 0.01 | 0.01 | 97 | 1019.8 |
| 20260906124055 | 67 | 182 | 3.0 | 10.0 | 0.01 | 0.01 | 0.01 | 97 | 1019.7 |
| 20260906123558 | 67 | 174 | 4.0 | 10.0 | 0.01 | 0.01 | 0.01 | 97 | 1019.8 |
| 20260906123107 | 67 | 162 | 2.0 | 7.0 | 0.01 | 0.01 | 0.01 | 97 | 1019.7 |
| 20260906122557 | 67 | 143 | 3.0 | 7.0 | 0.01 | 0.01 | 0.01 | 97 | 1019.6 |
| 20260906122059 | 67 | 163 | 4.0 | 8.0 | 0.01 | 0.01 | 0.01 | 97 | 1019.4 |
| 20260906121610 | 67 | 186 | 4.0 | 8.0 | 0.01 | 0.01 | 0.01 | 97 | 1019.4 |
| 20260906121056 | 66 | 148 | 4.0 | 8.0 | 0.01 | 0.01 | 0.01 | 98 | 1019.5 |
| 20260906120556 | 66 | 163 | 3.0 | 8.0 | 0.01 | 0.01 | 0.01 | 98 | 1019.5 |
| 20260906120107 | 66 | 138 | 4.0 | 7.0 | 0.00 | 0.00 | 0.00 | 98 | 1019.4 |
| 20260906115557 | 66 | 142 | 2.0 | 5.0 | 0.00 | 0.00 | 0.00 | 98 | 1019.3 |
| 20260906115056 | 65 | 176 | 3.0 | 5.0 | 0.00 | 0.00 | 0.00 | 98 | 1019.3 |
| 20260906114611 | 65 | 144 | 1.0 | 3.0 | 0.00 | 0.00 | 0.00 | 98 | 1019.3 |
| 20260906114058 | 64 | 0 | 0.0 | 3.0 | 0.00 | 0.00 | 0.00 | 98 | 1019.3 |
| 20260906113557 | 63 | 148 | 0.0 | 2.0 | 0.00 | 0.00 | 0.00 | 98 | 1019.3 |
| 20260906113059 | 63 | 128 | 0.0 | 1.0 | 0.00 | 0.00 | 0.00 | 97 | 1019.3 |
| 20260906112556 | 62 | 0 | 0.0 | 1.0 | 0.00 | 0.00 | 0.00 | 97 | 1019.4 |
| 20260906112057 | 62 | 129 | 0.0 | 1.0 | 0.00 | 0.00 | 0.00 | 97 | 1019.3 |
| 20260906111605 | 62 | 0 | 0.0 | 0.0 | 0.00 | 0.00 | 0.00 | 97 | 1019.3 |
| 20260906111057 | 61 | 0 | 0.0 | 0.0 | 0.00 | 0.00 | 0.00 | 96 | 1019.4 |
| 20260906110557 | 62 | 0 | 0.0 | 0.0 | 0.00 | 0.00 | 0.00 | 95 | 1019.3 |
| 20260906110104 | 62 | 0 | 0.0 | 0.0 | 0.00 | 0.00 | 0.00 | 96 | 1019.1 |
| 20260906105557 | 62 | 0 | 0.0 | 0.0 | 0.00 | 0.00 | 0.00 | 96 | 1019.2 |
| 20260906105056 | 63 | 0 | 0.0 | 0.0 | 0.00 | 0.00 | 0.00 | 96 | 1019.1 |
| 20260906104600 | 63 | 0 | 0.0 | 0.0 | 0.00 | 0.00 | 0.00 | 96 | 1019.1 |
| 20260906104057 | 63 | 0 | 0.0 | 0.0 | 0.00 | 0.00 | 0.00 | 96 | 1018.9 |
| 20260906103600 | 63 | 0 | 0.0 | 0.0 | 0.00 | 0.00 | 0.00 | 97 | 1018.9 |
| 20260906103105 | 63 | 0 | 0.0 | 0.0 | 0.00 | 0.00 | 0.00 | 97 | 1019.0 |
| 20260906102555 | 63 | 0 | 0.0 | 0.0 | 0.00 | 0.00 | 0.00 | 95 | 1018.9 |
| 20260906102057 | 64 | 0 | 0.0 | 1.0 | 0.00 | 0.00 | 0.00 | 96 | 1018.8 |
| 20260906101603 | 64 | 0 | 0.0 | 1.0 | 0.00 | 0.00 | 0.00 | 96 | 1018.7 |
| 20260906101056 | 64 | 0 | 0.0 | 1.0 | 0.00 | 0.00 | 0.00 | 96 | 1018.8 |
| 20260906100553 | 65 | 129 | 0.0 | 1.0 | 0.00 | 0.00 | 0.00 | 96 | 1018.7 |
| 20260906100104 | 65 | 0 | 0.0 | 0.0 | 0.00 | 0.00 | 0.00 | 96 | 1018.8 |
| 20260906095556 | 65 | 0 | 0.0 | 0.0 | 0.00 | 0.00 | 0.00 | 96 | 1018.7 |
| 20260906095054 | 65 | 0 | 0.0 | 1.0 | 0.00 | 0.00 | 0.00 | 96 | 1018.5 |
| 20260906094605 | 65 | 0 | 0.0 | 1.0 | 0.00 | 0.00 | 0.00 | 95 | 1018.4 |
| 20260906094054 | 65 | 0 | 0.0 | 1.0 | 0.00 | 0.00 | 0.00 | 96 | 1018.4 |
| 20260906093554 | 65 | 129 | 0.0 | 1.0 | 0.00 | 0.00 | 0.00 | 96 | 1018.1 |
| 20260906093106 | 65 | 0 | 0.0 | 1.0 | 0.00 | 0.00 | 0.00 | 96 | 1018.2 |
| 20260906092556 | 65 | 0 | 0.0 | 1.0 | 0.00 | 0.00 | 0.00 | 95 | 1018.2 |
| 20260906092053 | 65 | 0 | 0.0 | 1.0 | 0.00 | 0.00 | 0.00 | 95 | 1018.1 |
| 20260906091603 | 66 | 0 | 0.0 | 1.0 | 0.00 | 0.00 | 0.00 | 95 | 1018.1 |
| 20260906091054 | 66 | 101 | 0.0 | 1.0 | 0.00 | 0.00 | 0.00 | 95 | 1018.1 |
| 20260906090553 | 66 | 0 | 0.0 | 1.0 | 0.00 | 0.00 | 0.00 | 95 | 1018.1 |
| 20260906090108 | 66 | 0 | 0.0 | 2.0 | 0.00 | 0.00 | 0.00 | 95 | 1018.0 |
| 20260906085556 | 66 | 0 | 0.0 | 2.0 | 0.00 | 0.00 | 0.00 | 95 | 1017.9 |
| 20260906085054 | 66 | 77 | 0.0 | 2.0 | 0.00 | 0.00 | 0.00 | 95 | 1017.9 |
| 20260906084606 | 67 | 68 | 1.0 | 2.0 | 0.00 | 0.00 | 0.00 | 95 | 1017.9 |
| 20260906084054 | 67 | 0 | 0.0 | 2.0 | 0.00 | 0.00 | 0.00 | 95 | 1017.9 |
| 20260906083555 | 67 | 74 | 1.0 | 2.0 | 0.00 | 0.00 | 0.00 | 95 | 1017.9 |
| 20260906083102 | 67 | 79 | 1.0 | 2.0 | 0.00 | 0.00 | 0.00 | 95 | 1017.8 |
| 20260906082555 | 67 | 99 | 0.0 | 3.0 | 0.00 | 0.00 | 0.00 | 95 | 1017.9 |
| 20260906082053 | 67 | 0 | 0.0 | 3.0 | 0.00 | 0.00 | 0.00 | 95 | 1017.9 |
| 20260906081619 | 67 | 92 | 0.0 | 2.0 | 0.00 | 0.00 | 0.00 | 95 | 1017.9 |
| 20260906081054 | 67 | 79 | 0.0 | 5.0 | 0.00 | 0.00 | 0.00 | 95 | 1017.9 |
| 20260906080553 | 68 | 104 | 1.0 | 5.0 | 0.00 | 0.00 | 0.00 | 95 | 1018.1 |
| 20260906080107 | 68 | 57 | 1.0 | 3.0 | 0.00 | 0.00 | 0.00 | 95 | 1018.1 |
| 20260906075554 | 68 | 67 | 1.0 | 3.0 | 0.00 | 0.00 | 0.00 | 95 | 1018.1 |
| 20260906075057 | 68 | 77 | 0.0 | 2.0 | 0.00 | 0.00 | 0.00 | 95 | 1018.1 |
| 20260906074612 | 68 | 0 | 0.0 | 2.0 | 0.00 | 0.00 | 0.00 | 95 | 1018.3 |
| 20260906074056 | 68 | 0 | 0.0 | 2.0 | 0.00 | 0.00 | 0.00 | 95 | 1018.4 |
| 20260906073554 | 68 | 0 | 0.0 | 3.0 | 0.00 | 0.00 | 0.00 | 95 | 1018.4 |
| 20260906073102 | 68 | 0 | 0.0 | 3.0 | 0.00 | 0.00 | 0.00 | 95 | 1018.4 |
| 20260906072554 | 67 | 136 | 0.0 | 2.0 | 0.00 | 0.00 | 0.00 | 95 | 1018.2 |
| 20260906072056 | 67 | 148 | 0.0 | 2.0 | 0.00 | 0.00 | 0.00 | 95 | 1018.2 |
| 20260906071605 | 67 | 153 | 1.0 | 3.0 | 0.00 | 0.00 | 0.00 | 95 | 1018.4 |
| 20260906071053 | 67 | 122 | 0.0 | 3.0 | 0.00 | 0.00 | 0.00 | 95 | 1018.3 |
| 20260906070554 | 67 | 138 | 1.0 | 3.0 | 0.00 | 0.00 | 0.00 | 95 | 1018.3 |
| 20260906070109 | 67 | 119 | 0.0 | 2.0 | 0.00 | 0.00 | 0.00 | 95 | 1018.3 |
| 20260906065557 | 67 | 137 | 0.0 | 2.0 | 0.00 | 0.00 | 0.00 | 95 | 1018.4 |
| 20260906065054 | 67 | 115 | 0.0 | 3.0 | 0.00 | 0.00 | 0.00 | 95 | 1018.4 |
| 20260906064606 | 67 | 136 | 0.0 | 3.0 | 0.00 | 0.00 | 0.00 | 96 | 1018.5 |
| 20260906064053 | 67 | 150 | 0.0 | 3.0 | 0.00 | 0.00 | 0.00 | 96 | 1018.5 |
| 20260906063553 | 67 | 131 | 1.0 | 3.0 | 0.00 | 0.00 | 0.00 | 96 | 1018.5 |
| 20260906063106 | 67 | 141 | 0.0 | 1.0 | 0.00 | 0.00 | 0.00 | 96 | 1018.5 |
| 20260906062553 | 67 | 131 | 0.0 | 2.0 | 0.00 | 0.00 | 0.00 | 95 | 1018.5 |
| 20260906062057 | 67 | 119 | 0.0 | 2.0 | 0.00 | 0.00 | 0.00 | 96 | 1018.5 |
| 20260906061610 | 67 | 0 | 0.0 | 1.0 | 0.00 | 0.00 | 0.00 | 96 | 1018.6 |
| 20260906061056 | 67 | 0 | 0.0 | 1.0 | 0.00 | 0.00 | 0.00 | 96 | 1018.7 |
| 20260906060553 | 67 | 0 | 0.0 | 1.0 | 0.00 | 0.00 | 0.00 | 96 | 1018.8 |
| 20260906060107 | 67 | 0 | 0.0 | 1.0 | 0.00 | 0.00 | 0.00 | 95 | 1018.8 |
| 20260906055556 | 67 | 137 | 0.0 | 1.0 | 0.00 | 0.00 | 0.00 | 96 | 1018.7 |
| 20260906055053 | 67 | 136 | 0.0 | 1.0 | 0.00 | 0.00 | 0.00 | 95 | 1018.8 |
| 20260906054558 | 67 | 131 | 0.0 | 1.0 | 0.00 | 0.00 | 0.00 | 95 | 1018.7 |
| 20260906054054 | 67 | 0 | 0.0 | 1.0 | 0.00 | 0.00 | 0.00 | 95 | 1018.8 |
| 20260906053555 | 67 | 131 | 0.0 | 1.0 | 0.00 | 0.00 | 0.00 | 95 | 1018.7 |
| 20260906053105 | 67 | 131 | 0.0 | 1.0 | 0.00 | 0.00 | 0.00 | 95 | 1018.8 |
| 20260906052556 | 67 | 0 | 0.0 | 0.0 | 0.00 | 0.00 | 0.00 | 96 | 1018.8 |
| 20260906052053 | 67 | 0 | 0.0 | 0.0 | 0.00 | 0.00 | 0.00 | 95 | 1018.8 |
| 20260906051606 | 67 | 0 | 0.0 | 0.0 | 0.00 | 0.00 | 0.00 | 95 | 1018.8 |
| 20260906051057 | 67 | 0 | 0.0 | 0.0 | 0.00 | 0.00 | 0.00 | 95 | 1018.9 |
| 20260906050556 | 68 | 0 | 0.0 | 0.0 | 0.00 | 0.00 | 0.00 | 95 | 1019.0 |
| 20260906050105 | 68 | 0 | 0.0 | 0.0 | 0.00 | 0.00 | 0.00 | 95 | 1019.1 |
| 20260906045600 | 68 | 0 | 0.0 | 0.0 | 0.00 | 0.00 | 0.00 | 95 | 1019.0 |
| 20260906045056 | 68 | 0 | 0.0 | 0.0 | 0.00 | 0.00 | 0.00 | 95 | 1018.9 |
| 20260906044605 | 68 | 0 | 0.0 | 0.0 | 0.00 | 0.00 | 0.00 | 95 | 1018.8 |
| 20260906044054 | 68 | 0 | 0.0 | 0.0 | 0.00 | 0.00 | 0.00 | 95 | 1018.8 |
| 20260906043553 | 68 | 0 | 0.0 | 0.0 | 0.00 | 0.00 | 0.00 | 95 | 1018.9 |
| 20260906043104 | 68 | 0 | 0.0 | 0.0 | 0.00 | 0.00 | 0.00 | 95 | 1019.0 |
| 20260906042553 | 68 | 0 | 0.0 | 0.0 | 0.00 | 0.00 | 0.00 | 96 | 1018.8 |
| 20260906042053 | 68 | 0 | 0.0 | 0.0 | 0.00 | 0.00 | 0.00 | 96 | 1018.8 |
| 20260906041604 | 68 | 0 | 0.0 | 0.0 | 0.00 | 0.00 | 0.00 | 95 | 1018.6 |
| 20260906041053 | 68 | 0 | 0.0 | 0.0 | 0.00 | 0.00 | 0.00 | 95 | 1018.7 |
| 20260906040554 | 68 | 0 | 0.0 | 0.0 | 0.00 | 0.00 | 0.00 | 95 | 1018.6 |
| 20260906035554 | 68 | 0 | 0.0 | 0.0 | 0.00 | 0.00 | 0.00 | 95 | 1018.5 |
| 20260906035054 | 68 | 0 | 0.0 | 0.0 | 0.00 | 0.00 | 0.00 | 95 | 1018.6 |
| 20260906034611 | 68 | 0 | 0.0 | 0.0 | 0.00 | 0.00 | 0.00 | 95 | 1018.8 |
| 20260906034054 | 68 | 0 | 0.0 | 0.0 | 0.00 | 0.00 | 0.00 | 95 | 1018.7 |
| 20260906033554 | 68 | 0 | 0.0 | 0.0 | 0.00 | 0.00 | 0.00 | 95 | 1018.7 |
| 20260906033102 | 68 | 0 | 0.0 | 0.0 | 0.00 | 0.00 | 0.00 | 95 | 1018.8 |
| 20260906032553 | 68 | 0 | 0.0 | 0.0 | 0.00 | 0.00 | 0.00 | 95 | 1018.9 |
| 20260906032053 | 68 | 0 | 0.0 | 0.0 | 0.00 | 0.00 | 0.00 | 95 | 1018.9 |
| 20260906031605 | 68 | 0 | 0.0 | 0.0 | 0.00 | 0.00 | 0.00 | 95 | 1018.9 |
| 20260906031054 | 68 | 0 | 0.0 | 0.0 | 0.00 | 0.00 | 0.00 | 95 | 1018.8 |
| 20260906030554 | 68 | 0 | 0.0 | 0.0 | 0.00 | 0.00 | 0.00 | 95 | 1019.0 |
| 20260906030058 | 68 | 0 | 0.0 | 0.0 | 0.00 | 0.00 | 0.00 | 95 | 1018.9 |
| 20260906025554 | 68 | 0 | 0.0 | 0.0 | 0.00 | 0.00 | 0.00 | 95 | 1018.7 |
| 20260906025056 | 68 | 0 | 0.0 | 0.0 | 0.00 | 0.00 | 0.00 | 95 | 1018.6 |
| 20260906024608 | 68 | 0 | 0.0 | 0.0 | 0.00 | 0.00 | 0.00 | 95 | 1018.5 |
| 20260906024053 | 68 | 0 | 0.0 | 0.0 | 0.00 | 0.00 | 0.00 | 94 | 1018.6 |
| 20260906023554 | 67 | 0 | 0.0 | 0.0 | 0.00 | 0.00 | 0.00 | 94 | 1018.4 |
| 20260906023105 | 67 | 0 | 0.0 | 0.0 | 0.00 | 0.00 | 0.00 | 94 | 1018.4 |
| 20260906022553 | 67 | 0 | 0.0 | 0.0 | 0.00 | 0.00 | 0.00 | 93 | 1018.3 |
| 20260906022056 | 67 | 0 | 0.0 | 0.0 | 0.00 | 0.00 | 0.00 | 93 | 1018.1 |
| 20260906021607 | 68 | 0 | 0.0 | 0.0 | 0.00 | 0.00 | 0.00 | 93 | 1017.9 |
| 20260906021054 | 68 | 0 | 0.0 | 0.0 | 0.00 | 0.00 | 0.00 | 93 | 1017.9 |
| 20260906020554 | 68 | 0 | 0.0 | 0.0 | 0.00 | 0.00 | 0.00 | 93 | 1017.8 |
| 20260906020106 | 69 | 0 | 0.0 | 0.0 | 0.00 | 0.00 | 0.00 | 93 | 1017.8 |
| 20260906015553 | 69 | 0 | 0.0 | 0.0 | 0.00 | 0.00 | 0.00 | 93 | 1017.7 |
| 20260906015053 | 69 | 0 | 0.0 | 0.0 | 0.00 | 0.00 | 0.00 | 92 | 1017.6 |
| 20260906014607 | 69 | 0 | 0.0 | 0.0 | 0.00 | 0.00 | 0.00 | 92 | 1017.4 |
| 20260906014054 | 69 | 0 | 0.0 | 0.0 | 0.00 | 0.00 | 0.00 | 92 | 1017.3 |
| 20260906013555 | 70 | 0 | 0.0 | 0.0 | 0.00 | 0.00 | 0.00 | 91 | 1017.1 |
| 20260906013106 | 70 | 0 | 0.0 | 0.0 | 0.00 | 0.00 | 0.00 | 92 | 1017.1 |
| 20260906012555 | 70 | 0 | 0.0 | 0.0 | 0.00 | 0.00 | 0.00 | 91 | 1017.1 |
| 20260906012055 | 71 | 0 | 0.0 | 0.0 | 0.00 | 0.00 | 0.00 | 91 | 1017.1 |
| 20260906011606 | 71 | 0 | 0.0 | 0.0 | 0.00 | 0.00 | 0.00 | 90 | 1017.1 |
| 20260906011053 | 71 | 0 | 0.0 | 0.0 | 0.00 | 0.00 | 0.00 | 90 | 1017.2 |
| 20260906010553 | 71 | 0 | 0.0 | 0.0 | 0.00 | 0.00 | 0.00 | 90 | 1017.1 |
| 20260906010104 | 71 | 0 | 0.0 | 0.0 | 0.00 | 0.00 | 0.00 | 90 | 1017.1 |
| 20260906005553 | 71 | 0 | 0.0 | 0.0 | 0.00 | 0.00 | 0.00 | 89 | 1017.0 |
| 20260906005053 | 72 | 0 | 0.0 | 0.0 | 0.00 | 0.00 | 0.00 | 89 | 1016.8 |
| 20260906004601 | 72 | 0 | 0.0 | 0.0 | 0.00 | 0.00 | 0.00 | 89 | 1016.8 |
| 20260906004053 | 72 | 0 | 0.0 | 0.0 | 0.00 | 0.00 | 0.00 | 89 | 1016.8 |
| 20260906003553 | 72 | 0 | 0.0 | 0.0 | 0.00 | 0.00 | 0.00 | 88 | 1016.9 |
| 20260906003108 | 72 | 0 | 0.0 | 0.0 | 0.00 | 0.00 | 0.00 | 88 | 1017.0 |
| 20260906002552 | 72 | 0 | 0.0 | 0.0 | 0.00 | 0.00 | 0.00 | 88 | 1016.9 |
| 20260906002057 | 73 | 0 | 0.0 | 0.0 | 0.00 | 0.00 | 0.00 | 87 | 1017.0 |
| 20260906001610 | 73 | 0 | 0.0 | 1.0 | 0.00 | 0.00 | 0.00 | 87 | 1016.9 |
| 20260906001054 | 73 | 0 | 0.0 | 1.0 | 0.00 | 0.00 | 0.00 | 86 | 1017.0 |
| 20260906000554 | 74 | 0 | 0.0 | 2.0 | 0.00 | 0.00 | 0.00 | 85 | 1016.8 |
| 20260905235555 | 74 | 122 | 0.0 | 4.0 | 0.00 | 0.00 | 0.00 | 84 | 1017.0 |
| 20260905235054 | 75 | 123 | 1.0 | 6.0 | 0.00 | 0.00 | 0.00 | 84 | 1016.8 |
| 20260905234603 | 75 | 84 | 2.0 | 6.0 | 0.00 | 0.00 | 0.00 | 83 | 1016.8 |
| 20260905234053 | 75 | 114 | 2.0 | 6.0 | 0.00 | 0.00 | 0.00 | 82 | 1016.9 |
| 20260905233556 | 76 | 158 | 2.0 | 8.0 | 0.00 | 0.00 | 0.00 | 81 | 1017.0 |
| 20260905233105 | 76 | 64 | 2.0 | 8.0 | 0.00 | 0.00 | 0.00 | 81 | 1016.8 |
| 20260905232555 | 77 | 156 | 5.0 | 8.0 | 0.00 | 0.00 | 0.00 | 80 | 1016.8 |
| 20260905232056 | 77 | 85 | 4.0 | 10.0 | 0.00 | 0.00 | 0.00 | 80 | 1016.8 |
| 20260905231609 | 77 | 54 | 3.0 | 10.0 | 0.00 | 0.00 | 0.00 | 79 | 1016.6 |
| 20260905231053 | 78 | 120 | 3.0 | 8.0 | 0.00 | 0.00 | 0.00 | 79 | 1016.5 |
| 20260905230554 | 78 | 74 | 4.0 | 9.0 | 0.00 | 0.00 | 0.00 | 79 | 1016.5 |
| 20260905230108 | 78 | 139 | 3.0 | 9.0 | 0.00 | 0.00 | 0.00 | 80 | 1016.3 |
| 20260905225552 | 78 | 79 | 5.0 | 10.0 | 0.00 | 0.00 | 0.00 | 80 | 1016.3 |
| 20260905225053 | 78 | 50 | 4.0 | 10.0 | 0.00 | 0.00 | 0.00 | 81 | 1016.1 |
| 20260905224609 | 77 | 65 | 5.0 | 9.0 | 0.00 | 0.00 | 0.00 | 82 | 1016.0 |
| 20260905224052 | 77 | 60 | 6.0 | 11.0 | 0.00 | 0.00 | 0.00 | 82 | 1016.0 |
| 20260905223552 | 77 | 62 | 4.0 | 11.0 | 0.00 | 0.00 | 0.00 | 82 | 1015.9 |
| 20260905223103 | 77 | 161 | 6.0 | 11.0 | 0.00 | 0.00 | 0.00 | 82 | 1016.0 |
| 20260905222553 | 77 | 85 | 7.0 | 10.0 | 0.00 | 0.00 | 0.00 | 82 | 1015.9 |
| 20260905222055 | 77 | 84 | 6.0 | 10.0 | 0.00 | 0.00 | 0.00 | 82 | 1016.0 |
| 20260905221607 | 77 | 53 | 4.0 | 10.0 | 0.00 | 0.00 | 0.00 | 82 | 1016.0 |
| 20260905221057 | 77 | 86 | 4.0 | 11.0 | 0.00 | 0.00 | 0.00 | 82 | 1016.0 |
| 20260905220555 | 77 | 76 | 5.0 | 13.0 | 0.00 | 0.00 | 0.00 | 82 | 1015.8 |
| 20260905220110 | 78 | 51 | 8.0 | 14.0 | 0.00 | 0.00 | 0.00 | 81 | 1015.8 |
| 20260905215553 | 78 | 66 | 8.0 | 14.0 | 0.00 | 0.00 | 0.00 | 81 | 1015.7 |
| 20260905215054 | 78 | 56 | 6.0 | 11.0 | 0.00 | 0.00 | 0.00 | 81 | 1015.7 |
| 20260905214559 | 78 | 130 | 6.0 | 11.0 | 0.00 | 0.00 | 0.00 | 81 | 1015.9 |
| 20260905214053 | 78 | 62 | 5.0 | 10.0 | 0.00 | 0.00 | 0.00 | 81 | 1016.0 |
| 20260905213553 | 78 | 138 | 4.0 | 12.0 | 0.00 | 0.00 | 0.00 | 81 | 1015.9 |
| 20260905213104 | 78 | 68 | 7.0 | 14.0 | 0.00 | 0.00 | 0.00 | 81 | 1015.8 |
| 20260905212552 | 78 | 63 | 9.0 | 14.0 | 0.00 | 0.00 | 0.00 | 81 | 1015.7 |
| 20260905212056 | 78 | 70 | 8.0 | 12.0 | 0.00 | 0.00 | 0.00 | 81 | 1015.8 |
| 20260905211630 | 78 | 56 | 7.0 | 12.0 | 0.00 | 0.00 | 0.00 | 81 | 1016.0 |
| 20260905211052 | 78 | 80 | 6.0 | 11.0 | 0.00 | 0.00 | 0.00 | 81 | 1016.2 |
| 20260905210553 | 78 | 70 | 7.0 | 11.0 | 0.00 | 0.00 | 0.00 | 81 | 1016.3 |
| 20260905210104 | 78 | 71 | 6.0 | 9.0 | 0.00 | 0.00 | 0.00 | 81 | 1016.3 |
| 20260905205552 | 78 | 61 | 3.0 | 8.0 | 0.00 | 0.00 | 0.00 | 81 | 1016.4 |
| 20260905205054 | 78 | 58 | 4.0 | 9.0 | 0.00 | 0.00 | 0.00 | 81 | 1016.5 |
| 20260905204608 | 78 | 73 | 7.0 | 10.0 | 0.00 | 0.00 | 0.00 | 81 | 1016.4 |
| 20260905204056 | 78 | 51 | 6.0 | 12.0 | 0.00 | 0.00 | 0.00 | 81 | 1016.4 |
| 20260905203557 | 78 | 51 | 6.0 | 12.0 | 0.00 | 0.00 | 0.00 | 80 | 1016.6 |
| 20260905203119 | 78 | 72 | 6.0 | 13.0 | 0.00 | 0.00 | 0.00 | 80 | 1016.7 |
| 20260905202557 | 78 | 54 | 7.0 | 13.0 | 0.00 | 0.00 | 0.00 | 80 | 1016.7 |
| 20260905202057 | 78 | 51 | 6.0 | 10.0 | 0.00 | 0.00 | 0.00 | 79 | 1016.7 |
| 20260905201607 | 78 | 58 | 6.0 | 10.0 | 0.00 | 0.00 | 0.00 | 80 | 1016.8 |
| 20260905201057 | 78 | 105 | 6.0 | 10.0 | 0.00 | 0.00 | 0.00 | 80 | 1016.9 |
| 20260905200557 | 78 | 61 | 5.0 | 10.0 | 0.00 | 0.00 | 0.00 | 79 | 1017.1 |
| 20260905200118 | 78 | 31 | 5.0 | 10.0 | 0.00 | 0.00 | 0.00 | 79 | 1017.2 |
| 20260905195557 | 79 | 62 | 5.0 | 10.0 | 0.00 | 0.00 | 0.00 | 79 | 1017.1 |
| 20260905195057 | 79 | 65 | 5.0 | 10.0 | 0.00 | 0.00 | 0.00 | 79 | 1017.2 |
| 20260905194605 | 79 | 89 | 4.0 | 7.0 | 0.00 | 0.00 | 0.00 | 78 | 1017.4 |
| 20260905194057 | 80 | 73 | 2.0 | 5.0 | 0.00 | 0.00 | 0.00 | 77 | 1017.4 |
| 20260905193556 | 80 | 62 | 2.0 | 7.0 | 0.00 | 0.00 | 0.00 | 77 | 1017.5 |
| 20260905193105 | 80 | 85 | 4.0 | 7.0 | 0.00 | 0.00 | 0.00 | 77 | 1017.7 |
| 20260905192556 | 81 | 60 | 2.0 | 4.0 | 0.00 | 0.00 | 0.00 | 76 | 1017.7 |
| 20260905192057 | 81 | 150 | 1.0 | 4.0 | 0.00 | 0.00 | 0.00 | 77 | 1017.6 |
| 20260905191607 | 81 | 74 | 1.0 | 5.0 | 0.00 | 0.00 | 0.00 | 76 | 1017.7 |
| 20260905191057 | 81 | 127 | 2.0 | 5.0 | 0.00 | 0.00 | 0.00 | 77 | 1017.8 |
| 20260905190558 | 81 | 0 | 1.0 | 4.0 | 0.00 | 0.00 | 0.00 | 75 | 1017.9 |
| 20260905185557 | 81 | 44 | 1.0 | 4.0 | 0.00 | 0.00 | 0.00 | 73 | 1018.0 |
| 20260905185057 | 82 | 140 | 0.0 | 5.0 | 0.00 | 0.00 | 0.00 | 74 | 1017.9 |
| 20260905184613 | 81 | 120 | 2.0 | 5.0 | 0.00 | 0.00 | 0.00 | 77 | 1017.9 |
| 20260905184057 | 81 | 142 | 2.0 | 5.0 | 0.00 | 0.00 | 0.00 | 77 | 1017.9 |
| 20260905183557 | 80 | 156 | 0.0 | 4.0 | 0.00 | 0.00 | 0.00 | 78 | 1017.9 |
| 20260905183105 | 79 | 99 | 1.0 | 3.0 | 0.00 | 0.00 | 0.00 | 78 | 1017.9 |
| 20260905182557 | 79 | 46 | 2.0 | 3.0 | 0.00 | 0.00 | 0.00 | 78 | 1018.1 |
| 20260905182056 | 79 | 316 | 1.0 | 5.0 | 0.00 | 0.00 | 0.00 | 79 | 1018.0 |
| 20260905181612 | 79 | 69 | 1.0 | 5.0 | 0.00 | 0.00 | 0.00 | 79 | 1018.0 |
| 20260905181057 | 79 | 86 | 1.0 | 4.0 | 0.00 | 0.00 | 0.00 | 78 | 1018.2 |
| 20260905180556 | 79 | 121 | 1.0 | 4.0 | 0.00 | 0.00 | 0.00 | 78 | 1018.2 |
| 20260905180107 | 79 | 162 | 1.0 | 6.0 | 0.00 | 0.00 | 0.00 | 79 | 1018.1 |
| 20260905175557 | 79 | 150 | 2.0 | 6.0 | 0.00 | 0.00 | 0.00 | 80 | 1018.1 |
| 20260905175056 | 79 | 75 | 2.0 | 5.0 | 0.00 | 0.00 | 0.00 | 79 | 1018.1 |
| 20260905174602 | 78 | 46 | 2.0 | 5.0 | 0.00 | 0.00 | 0.00 | 80 | 1018.4 |
| 20260905174056 | 78 | 159 | 2.0 | 5.0 | 0.00 | 0.00 | 0.00 | 80 | 1018.7 |
| 20260905173557 | 78 | 181 | 1.0 | 4.0 | 0.00 | 0.00 | 0.00 | 80 | 1018.7 |
| 20260905173124 | 77 | 150 | 1.0 | 4.0 | 0.00 | 0.00 | 0.00 | 82 | 1018.8 |
| 20260905172556 | 77 | 266 | 0.0 | 3.0 | 0.00 | 0.00 | 0.00 | 82 | 1019.0 |
| 20260905172057 | 77 | 139 | 2.0 | 5.0 | 0.00 | 0.00 | 0.00 | 81 | 1019.1 |
| 20260905171601 | 77 | 68 | 1.0 | 6.0 | 0.00 | 0.00 | 0.00 | 82 | 1019.0 |
| 20260905171056 | 77 | 127 | 3.0 | 6.0 | 0.00 | 0.00 | 0.00 | 82 | 1018.9 |
| 20260905170557 | 77 | 146 | 2.0 | 6.0 | 0.00 | 0.00 | 0.00 | 82 | 1018.9 |
| 20260905170105 | 77 | 161 | 1.0 | 6.0 | 0.00 | 0.00 | 0.00 | 83 | 1018.9 |
| 20260905165556 | 76 | 101 | 2.0 | 6.0 | 0.00 | 0.00 | 0.00 | 84 | 1018.9 |
| 20260905165054 | 76 | 158 | 2.0 | 5.0 | 0.00 | 0.00 | 0.00 | 84 | 1018.9 |
| 20260905164606 | 76 | 139 | 2.0 | 5.0 | 0.00 | 0.00 | 0.00 | 85 | 1019.0 |
| 20260905164057 | 75 | 131 | 2.0 | 5.0 | 0.00 | 0.00 | 0.00 | 86 | 1018.9 |
| 20260905163553 | 75 | 75 | 1.0 | 4.0 | 0.00 | 0.00 | 0.00 | 86 | 1018.9 |
| 20260905163108 | 75 | 65 | 2.0 | 4.0 | 0.00 | 0.00 | 0.00 | 86 | 1018.9 |
| 20260905162557 | 75 | 68 | 2.0 | 4.0 | 0.00 | 0.00 | 0.00 | 86 | 1018.7 |
| 20260905162054 | 75 | 137 | 2.0 | 4.0 | 0.00 | 0.00 | 0.00 | 86 | 1018.7 |
| 20260905161604 | 75 | 62 | 2.0 | 4.0 | 0.00 | 0.00 | 0.00 | 86 | 1018.7 |
| 20260905161054 | 75 | 130 | 1.0 | 5.0 | 0.00 | 0.00 | 0.00 | 87 | 1018.6 |
| 20260905160558 | 75 | 123 | 2.0 | 5.0 | 0.00 | 0.00 | 0.00 | 88 | 1018.5 |
| 20260905160137 | 74 | 195 | 1.0 | 6.0 | 0.00 | 0.00 | 0.00 | 88 | 1018.5 |
| 20260905155554 | 74 | 109 | 2.0 | 7.0 | 0.00 | 0.00 | 0.00 | 89 | 1018.4 |
| 20260905155053 | 74 | 71 | 3.0 | 7.0 | 0.00 | 0.00 | 0.00 | 89 | 1018.5 |
| 20260905154604 | 74 | 71 | 4.0 | 8.0 | 0.00 | 0.00 | 0.00 | 89 | 1018.4 |
| 20260905154057 | 74 | 108 | 4.0 | 8.0 | 0.00 | 0.00 | 0.00 | 90 | 1018.4 |
| 20260905153556 | 73 | 100 | 3.0 | 8.0 | 0.00 | 0.00 | 0.00 | 90 | 1018.4 |
| 20260905153116 | 73 | 88 | 3.0 | 9.0 | 0.00 | 0.00 | 0.00 | 91 | 1018.4 |
| 20260905152556 | 72 | 104 | 5.0 | 9.0 | 0.00 | 0.00 | 0.00 | 91 | 1018.3 |
| 20260905152054 | 72 | 79 | 4.0 | 8.0 | 0.00 | 0.00 | 0.00 | 92 | 1018.3 |
| 20260905151604 | 72 | 56 | 3.0 | 8.0 | 0.00 | 0.00 | 0.00 | 93 | 1018.2 |
| 20260905151053 | 72 | 98 | 2.0 | 8.0 | 0.00 | 0.00 | 0.00 | 94 | 1018.3 |
| 20260905150553 | 71 | 58 | 3.0 | 8.0 | 0.00 | 0.00 | 0.00 | 94 | 1018.4 |
| 20260905150104 | 71 | 121 | 3.0 | 7.0 | 0.00 | 0.00 | 0.00 | 95 | 1018.4 |
| 20260905145554 | 71 | 72 | 4.0 | 7.0 | 0.00 | 0.00 | 0.00 | 96 | 1018.2 |
| 20260905145056 | 71 | 72 | 4.0 | 9.0 | 0.00 | 0.00 | 0.00 | 96 | 1018.1 |
| 20260905144605 | 70 | 71 | 4.0 | 9.0 | 0.00 | 0.00 | 0.00 | 96 | 1018.2 |
| 20260905144054 | 70 | 65 | 5.0 | 8.0 | 0.00 | 0.00 | 0.00 | 96 | 1018.1 |
| 20260905143554 | 70 | 65 | 3.0 | 7.0 | 0.00 | 0.00 | 0.00 | 97 | 1018.1 |